Eureka, Nunavut

4:19 PM CDT on August 22, 2017 (GMT -0500)
Eureka

Weather History for CWEU - December, 2012

Change the Weather History Date:

Saturday, December 15, 2012

  Actual Average Record
Temperature  
Mean Temperature -8 °F -  
Max Temperature -4 °F -26 °F 8 °F (2010)
Min Temperature -13 °F -39 °F -50 °F (2004)
Degree Days  
Heating Degree Days 74    
Moisture  
Dew Point -16 °F    
Average Humidity 62    
Maximum Humidity 71    
Minimum Humidity 44    
Precipitation  
Precipitation 0.00 in 0.00 in - ()
Sea Level Pressure  
Sea Level Pressure 30.12 in    
Wind  
Wind Speed 14 mph ()    
Max Wind Speed 21 mph    
Max Gust Speed 28 mph    
Visibility 12.0 miles    
Events Snow    
Averages and records for this station are not official NWS values.
T = Trace of Precipitation, MM = Missing Value Source: Averaged Metar Reports

Daily Weather History Graph

Daily Weather History Graph

Search for Another Location

Airport or City:

Trip Planner

Search our weather history database for the weather conditions in past years. The results will help you decide how hot, cold, wet, or windy it might be!

Date:

Astronomy

Dec. 31, 1969 Rise Set
Actual Time Sun does not set Sun does not set
Civil Twilight Sun does not set Sun does not set
Nautical Twilight Sun does not set Sun does not set
Astronomical Twilight 7:40 AM CST 3:37 PM CST
Moon No Moon Rise No Moon Set
Length of Visible Light 0h 00m
Length of Day
0h 00m
Waxing Crescent, 8% of the Moon is Illuminated
Dec 15
Waxing Crescent
Dec 19
First Quarter
Dec 28
Full
Jan 4
Last Quarter
Jan 11
New

Hourly Weather History & Observations

Time (CST) Temp. Windchill Dew Point Humidity Pressure Visibility Wind Dir Wind Speed Gust Speed Precip Events Conditions
12:00 AM -7 °F - -17 °F 44% 30.03 in 10 mi SSE 17.3 mph - - Snow Snow
1:00 AM -7.6 °F -30.5 °F -16.6 °F 65% 30.03 in 10.0 mi SSE 17.3 mph - N/A Snow Low Drifting Snow
2:00 AM -5.8 °F -29.9 °F -16.6 °F 60% 30.04 in 15.0 mi SSE 20.7 mph 27.6 mph N/A Snow Low Drifting Snow
3:00 AM -7.6 °F -32.3 °F -16.6 °F 65% 30.05 in 15.0 mi SSE 20.7 mph 27.6 mph N/A Snow Low Drifting Snow
4:00 AM -5.8 °F -26.8 °F -16.6 °F 60% 30.07 in 15.0 mi SSE 15.0 mph - N/A   Overcast
5:00 AM -5.8 °F -27.5 °F -14.8 °F 65% 30.07 in 15.0 mi SE 16.1 mph 21.9 mph N/A Snow Low Drifting Snow
6:00 AM -6 °F - -15 °F 50% 30.06 in 15 mi SE 18.4 mph - - Snow Snow
6:00 AM -5.8 °F -28.8 °F -14.8 °F 65% 30.06 in 15.0 mi SSE 18.4 mph - N/A Snow Low Drifting Snow
7:00 AM -5.8 °F -29.4 °F -13.0 °F 71% 30.08 in 15.0 mi SE 19.6 mph - N/A Snow Low Drifting Snow
8:00 AM -4.0 °F -25.8 °F -13.0 °F 65% 30.08 in 15.0 mi SSE 17.3 mph - N/A Snow Low Drifting Snow
9:00 AM -4.0 °F -23.7 °F -13.0 °F 65% 30.10 in 10.0 mi SSE 13.8 mph 19.6 mph N/A Snow Low Drifting Snow
9:36 AM - - - N/A% - 8.0 mi SSE 16.1 mph 23.0 mph N/A   Unknown
10:00 AM -4.0 °F -25.2 °F -13.0 °F 65% 30.12 in 8.0 mi SSE 16.1 mph - N/A Snow Light Snow
11:00 AM -7.6 °F -27.5 °F -16.6 °F 65% 30.12 in 15.0 mi SE 12.7 mph - N/A Snow Low Drifting Snow
12:00 PM -10 °F - -19 °F 50% 30.13 in 15 mi SE 13.8 mph - - Snow Snow
12:00 PM -9.4 °F -32.1 °F -18.4 °F 65% 30.13 in 15.0 mi SE 16.1 mph 21.9 mph N/A Snow Low Drifting Snow
1:00 PM -9.4 °F -28.9 °F -18.4 °F 65% 30.14 in 15.0 mi SE 11.5 mph 17.3 mph N/A Snow Low Drifting Snow
2:00 PM -11.2 °F -32.1 °F -18.4 °F 70% 30.17 in 8.0 mi SE 12.7 mph - N/A Snow Low Drifting Snow
3:00 PM -9.4 °F -29.8 °F -18.4 °F 65% 30.18 in 10.0 mi SSE 12.7 mph 21.9 mph N/A Snow Low Drifting Snow
4:00 PM -7.6 °F -26.6 °F -16.6 °F 65% 30.19 in 15.0 mi SE 11.5 mph 18.4 mph N/A Snow Low Drifting Snow
5:00 PM -7.6 °F -28.3 °F -16.6 °F 65% 30.20 in 15.0 mi SE 13.8 mph - N/A   Clear
6:00 PM -9 °F - -18 °F 50% 30.20 in 10 mi SE 13.8 mph - - Snow Snow
6:00 PM -9.4 °F -29.8 °F -18.4 °F 65% 30.20 in 10.0 mi SE 12.7 mph - N/A   Partly Cloudy
7:00 PM -5.8 °F -24.4 °F -14.8 °F 65% 30.21 in 6.0 mi SE 11.5 mph - N/A   Ice Crystals
8:00 PM -5.8 °F -23.4 °F -14.8 °F 65% 30.22 in 5.0 mi SE 10.4 mph - N/A   Ice Crystals
9:00 PM -5.8 °F -23.4 °F -14.8 °F 65% 30.22 in 6.0 mi SE 10.4 mph - N/A   Ice Crystals